GFSSGP_con_lsi_231.txt.gz
Lid_Strength_Index
-1 -1 -1 2 7 7 10 10 7 8 8 5 5 6 7 7 9 12 1 -0 -0 1 -0 -1 -2 -2 -2 -2 -2 -2 -2 -2 -2 -2 -2 -2 -2 -2 -2 -2 -2 -2 -2 -2 -2 -2 -2 -2 -2
-1 0 1 4 9 11 10 7 8 7 6 5 5 5 6 8 5 4 3 -0 -1 -0 -1 -1 -1 -2 -2 -2 -2 -2 -2 -2 -2 -2 -2 -2 -2 -2 -2 -2 -2 -2 -2 -2 -2 -2 -2 -1 -1
-0 0 4 6 8 10 9 7 7 6 5 5 6 4 6 7 4 3 1 0 -1 -0 -1 -1 -1 -2 -1 -2 -2 -2 -2 -2 -2 -2 -2 -2 -2 -2 -2 -1 -1 -2 -2 -2 -2 -2 -2 -1 -1
1 2 4 9 9 7 7 7 6 7 5 5 5 8 4 2 3 1 -0 0 -0 -1 -1 -1 -1 -2 -1 -2 -2 -2 -2 -2 -2 -2 -2 -2 -1 -1 -1 -1 -1 -1 -1 -1 -1 -2 -1 -1 -1
1 4 8 9 8 7 6 6 6 7 6 6 5 8 7 3 1 0 0 -0 0 -0 -1 -1 -1 -1 -2 -2 -2 -2 -2 -2 -2 -1 -1 -1 -1 -1 -1 -1 -1 -1 -1 -1 -1 -1 -1 -1 -1
5 4 9 11 9 6 6 5 6 6 6 6 6 7 7 2 2 1 0 -0 -1 -0 -1 -1 0 -1 -1 -2 -2 -2 -2 -2 -1 -1 -1 -1 -1 -1 -1 -1 -1 -1 -1 -1 -1 -1 -1 -1 -1
6 7 9 9 8 7 7 5 6 6 6 6 4 8 6 4 1 1 1 -0 -0 -1 -1 -1 -1 -1 -0 -1 -1 -2 -2 -2 -1 -1 -1 -1 -1 -1 -1 -1 -1 -1 -1 -1 -1 -1 -1 -1 -1
5 6 9 8 9 8 6 6 5 5 7 4 4 8 8 4 1 1 1 0 -0 -0 -1 -1 -1 -1 -1 -1 -0 -1 -1 -1 -2 -1 -1 -1 -1 -1 -1 -0 -0 -1 -1 -1 -1 -1 -1 -1 -1
3 9 10 9 8 7 5 7 5 4 6 5 4 4 3 2 1 2 2 1 1 0 -0 -1 -1 -1 -1 -1 -0 0 0 -0 -1 -1 -1 -0 -1 -1 -1 0 -0 -1 -1 -1 -1 -1 -1 -1 -0
6 9 8 6 6 6 6 6 6 6 7 7 6 4 3 2 2 3 3 3 2 1 0 -0 -1 -1 -1 -1 -1 -1 -1 -1 -1 -1 -1 -1 -1 -1 -1 1 1 0 0 -0 -1 -1 -0 1 -1
6 9 6 6 5 5 6 6 5 6 8 6 7 6 4 3 3 3 3 2 2 1 0 -0 -1 -1 -1 -1 -1 -1 -1 -1 -1 -1 -1 -1 -1 -1 -1 -1 -1 -1 1 -1 -1 -1 -1 -1 -1
9 6 6 5 5 6 6 5 7 6 6 4 4 4 4 4 4 3 3 2 2 1 1 -0 -1 -1 -1 -1 -1 -1 -1 -1 -1 -1 -1 -1 -1 -1 -1 -1 -1 -1 -1 -0 -1 -1 -1 -1 -1
8 7 5 5 5 5 5 7 7 7 5 4 4 4 4 4 4 3 2 2 1 2 1 0 -0 -0 -1 -1 -1 -1 -1 -1 1 2 2 1 -1 -0 -1 1 2 2 1 -1 -0 -1 -1 -1 -0
6 6 6 5 6 5 7 7 7 7 5 5 5 5 4 5 5 4 3 2 2 1 1 0 -0 -1 -1 -0 -0 -0 1 2 3 4 4 4 3 3 3 4 4 5 3 2 1 -1 2 3 3
7 8 7 6 6 7 6 9 9 6 5 6 6 6 7 7 7 7 6 4 4 3 3 1 0 -0 -0 -0 2 4 3 3 4 6 7 6 5 5 4 4 4 4 4 3 3 2 4 5 5
9 8 12 8 7 6 7 12 8 7 6 7 6 7 8 8 9 9 9 7 6 5 4 3 3 -0 1 3 4 6 6 8 8 8 7 7 7 6 6 5 6 5 5 5 5 6 6 6 6
12 15 12 10 6 8 8 11 8 7 7 8 8 8 8 10 10 10 9 7 7 5 4 2 1 1 4 5 7 8 8 9 9 8 8 7 7 6 6 6 6 6 6 7 7 6 7 7 8
16 15 12 12 9 8 10 10 8 8 7 8 9 8 9 9 10 10 10 8 6 5 4 3 2 4 5 7 9 9 9 9 8 8 7 7 7 7 7 7 7 7 7 8 8 7 8 8 9
12 13 15 10 9 9 10 10 10 9 7 9 8 10 10 10 10 9 9 7 7 7 6 4 5 7 8 9 10 10 11 10 9 9 8 8 8 8 7 8 8 8 9 9 9 9 9 10 10
12 15 16 14 10 11 10 11 9 9 9 8 8 7 8 10 9 9 9 8 8 10 10 8 7 7 8 9 10 10 10 9 9 9 8 8 9 9 9 9 10 10 10 11 10 10 10 10 10
13 15 16 16 14 11 10 13 12 11 10 9 9 8 8 9 10 11 10 9 9 10 10 10 10 10 10 11 10 10 10 9 9 9 9 9 9 10 10 10 10 11 11 11 11 10 11 11 10
15 11 12 15 16 18 11 18 13 12 13 12 10 10 10 10 10 11 11 11 11 11 11 11 11 11 10 9 10 8 9 11 10 10 10 10 10 11 11 11 11 11 11 11 11 10 10 10 11
12 10 12 12 15 17 16 17 13 11 13 12 11 10 11 12 12 12 12 12 12 11 11 11 11 11 10 9 9 9 10 10 10 10 10 11 10 11 11 11 11 11 11 10 10 10 10 10 11
9 11 12 12 14 19 16 17 16 13 11 10 10 10 11 12 12 12 12 12 13 12 12 11 11 11 10 9 9 9 10 11 10 11 11 11 11 11 11 11 11 10 11 11 11 11 11 11 11
10 14 19 20 20 20 14 17 15 10 9 9 10 11 11 12 12 13 13 13 13 13 13 12 12 12 11 11 11 11 11 11 11 11 11 11 12 11 12 11 11 11 11 12 11 11 11 11 12
12 13 17 22 21 19 15 19 15 11 10 8 9 10 11 12 12 13 13 13 13 13 13 12 12 13 12 12 12 12 12 12 12 12 11 11 11 11 11 11 11 12 12 12 12 12 12 11 11
12 15 11 16 16 18 16 14 11 12 11 10 11 12 13 13 13 13 12 13 13 13 13 13 13 13 13 13 13 13 12 12 12 12 11 11 10 11 12 11 11 11 11 12 12 12 13 12 12
10 9 15 15 20 22 17 16 14 14 11 10 11 12 12 12 13 13 13 12 13 13 13 13 13 13 13 13 13 13 13 12 12 12 12 12 12 12 12 11 11 12 12 12 12 12 12 12 12
12 13 12 12 15 18 19 16 11 10 10 10 10 10 10 12 13 13 13 13 13 13 13 13 14 14 13 13 13 13 13 13 12 12 12 12 12 12 12 12 12 13 13 12 12 12 12 12 12
10 11 12 16 18 15 16 15 13 12 10 9 10 10 10 11 12 12 13 13 13 13 13 13 13 13 13 13 13 13 13 13 13 13 13 13 13 13 13 13 13 14 13 13 12 12 12 12 12

GFSSGP_con_lsi_234.txt.gz
Lid_Strength_Index
-1 -0 0 3 10 10 12 10 8 9 8 6 5 7 8 8 10 12 2 1 0 1 -1 -1 -1 -2 -2 -2 -2 -2 -2 -2 -2 -2 -2 -2 -2 -2 -2 -2 -2 -2 -2 -2 -2 -2 -2 -2 -2
1 0 2 5 11 13 11 8 9 8 7 5 6 6 7 9 5 4 3 0 0 0 -1 -1 -1 -2 -2 -2 -2 -2 -2 -2 -2 -2 -2 -2 -2 -2 -2 -2 -2 -2 -2 -2 -2 -2 -2 -2 -2
1 1 6 8 11 12 11 8 8 7 6 6 7 5 6 8 4 3 1 0 -0 -0 -0 -1 -1 -2 -2 -2 -2 -2 -2 -2 -2 -2 -2 -2 -2 -2 -2 -2 -2 -1 -2 -2 -2 -2 -2 -1 -1
2 3 5 10 11 9 8 7 7 7 6 5 6 9 5 3 3 2 1 0 0 0 -0 -1 -1 -1 -2 -2 -2 -2 -2 -2 -2 -2 -2 -2 -2 -1 -1 -1 -1 -1 -1 -2 -2 -2 -1 -1 -1
2 5 10 11 10 8 7 6 6 8 7 7 6 9 7 3 1 1 1 1 1 0 -0 -1 -1 -1 -2 -2 -2 -2 -2 -2 -2 -2 -2 -1 -1 -1 -1 -1 -1 -1 -1 -1 -1 -1 -1 -1 -1
6 6 11 12 10 8 7 6 6 7 6 6 7 8 7 2 2 2 1 1 0 0 -0 -1 0 -1 -1 -2 -2 -2 -2 -2 -2 -1 -1 -1 -1 -1 -1 -1 -1 -1 -1 -1 -1 -1 -1 -1 -1
7 9 11 10 10 8 7 6 7 7 7 7 5 9 6 4 2 2 1 1 0 -0 -0 -0 -1 -0 -0 -1 -1 -2 -2 -2 -2 -2 -1 -2 -2 -1 -1 -1 -1 -1 -1 -1 -1 -1 -1 -1 -1
5 7 11 9 10 9 6 6 5 6 8 4 5 9 9 4 2 3 2 1 0 0 -0 0 -0 -0 -0 -0 -0 -1 -1 -1 -1 -1 -1 -1 -0 -0 -0 -0 -1 -1 -1 -1 -1 -1 -1 -1 -1
4 10 13 11 9 8 6 7 5 5 6 6 5 6 4 2 3 4 3 2 2 1 1 0 0 0 -0 -0 0 0 -0 -0 -1 -0 0 0 -1 -1 -1 1 -0 -1 -1 -1 -1 -1 -1 -1 -0
7 11 11 7 7 7 6 7 7 7 8 8 7 4 3 3 3 4 3 3 3 2 1 1 2 0 -0 -1 -0 -0 -0 -0 -0 -1 -1 -0 -0 -0 -0 2 1 1 0 0 -1 -1 -1 0 -0
7 10 8 7 5 5 6 7 6 7 9 7 8 6 4 4 4 4 3 3 3 2 1 1 1 0 -0 0 0 0 0 0 -0 -1 -0 -0 -0 -0 -0 -0 0 -0 1 -0 -0 -1 -1 -1 -0
9 7 7 6 5 6 7 6 7 7 8 5 5 4 4 4 4 4 3 3 3 3 2 1 0 0 0 0 1 1 0 -0 -0 1 1 0 -0 0 0 1 1 1 1 -0 -0 -0 -0 -0 1
9 8 6 6 6 6 6 7 8 8 6 5 4 4 5 4 4 3 2 3 2 2 2 1 1 0 0 0 0 -0 1 3 3 3 3 2 2 2 2 4 5 5 4 2 2 2 4 4 4
8 8 8 6 6 6 7 8 7 7 5 6 5 5 5 4 4 3 3 3 2 2 1 1 1 1 0 -0 1 2 3 4 5 6 5 5 4 4 4 5 5 6 6 4 4 5 7 7 7
8 11 9 8 7 7 7 10 10 7 6 7 6 6 6 6 5 4 3 4 3 3 3 1 1 -0 1 3 4 5 5 6 6 6 7 7 6 6 6 7 7 7 7 7 6 7 7 8 8
11 10 14 9 7 7 8 13 9 6 7 7 7 7 8 8 8 7 7 7 6 5 4 3 3 1 3 5 6 8 8 7 8 8 8 6 6 6 7 7 7 7 8 8 8 8 9 9 9
12 16 14 12 7 8 10 12 9 7 7 8 8 8 9 9 10 9 8 7 6 5 4 3 2 4 6 8 8 8 8 8 9 9 8 7 7 7 8 8 8 8 9 9 9 8 9 10 11
16 15 14 14 10 9 10 11 9 8 8 8 8 8 9 10 10 9 9 8 6 5 4 3 4 6 7 8 9 9 9 9 9 9 9 9 9 9 9 9 9 9 10 10 10 10 10 11 12
12 13 14 14 11 12 11 11 10 8 8 8 8 9 9 10 10 10 10 8 7 7 7 3 6 7 8 9 10 10 11 11 10 10 10 10 10 9 9 9 10 10 11 11 11 11 11 12 12
12 14 16 14 13 13 11 12 10 9 9 8 9 9 10 11 11 10 9 8 9 10 9 6 7 8 8 8 10 10 10 10 11 11 10 10 10 10 10 10 11 11 12 12 12 12 12 12 12
13 14 15 16 15 13 13 14 12 10 8 7 7 8 10 11 11 10 10 10 11 10 10 10 9 10 10 10 10 10 10 10 11 11 11 11 10 10 10 11 11 12 12 13 13 13 14 14 12
15 10 12 14 16 18 15 19 14 11 11 10 9 9 10 10 10 11 10 10 11 11 11 10 10 10 10 9 10 11 11 12 12 12 12 12 11 11 11 11 12 13 13 14 13 12 13 13 14
12 10 12 13 15 16 16 17 15 12 13 13 10 10 10 10 11 11 11 12 12 12 12 11 10 9 9 9 9 11 12 12 11 12 12 12 12 12 12 13 13 13 13 13 13 13 13 13 14
9 11 12 12 14 19 16 17 16 14 12 12 11 10 12 13 12 13 13 13 13 12 12 11 11 12 10 10 11 11 13 12 12 12 12 13 13 13 13 13 13 13 13 13 13 13 13 13 13
11 14 19 20 20 21 14 17 15 11 10 10 11 10 12 12 13 13 13 13 13 13 12 12 12 13 12 11 12 12 13 12 12 13 13 13 14 14 14 13 13 13 14 13 13 13 13 13 14
12 13 19 23 22 20 15 19 15 10 10 9 9 10 11 12 12 12 12 13 13 13 13 13 13 14 13 13 13 13 13 13 13 13 13 14 14 14 13 13 13 13 13 13 13 14 14 14 14
12 15 12 17 17 19 18 15 11 11 11 9 10 12 12 13 13 13 12 13 13 13 13 13 14 14 14 13 13 13 14 14 14 14 14 14 13 13 13 13 13 13 13 13 14 14 14 14 14
11 10 16 16 22 23 18 18 16 14 12 11 12 13 12 13 14 13 13 13 13 14 14 14 14 14 14 14 14 14 14 14 14 14 14 13 13 13 13 13 13 13 13 14 14 14 14 14 14
13 14 13 14 16 19 20 17 13 12 11 11 12 12 13 14 14 13 13 14 14 14 14 15 15 15 15 14 14 14 14 14 14 14 14 13 13 14 13 14 14 14 14 14 14 14 14 14 14
11 12 12 17 18 16 16 16 14 14 13 10 11 12 12 13 12 13 13 14 15 15 15 15 15 15 15 14 14 14 14 14 14 14 14 14 14 14 14 14 14 15 14 14 14 14 14 14 14

GFSSGP_con_lsi_237.txt.gz
Lid_Strength_Index
0 3 2 5 10 11 14 11 8 9 9 7 6 7 9 8 10 13 2 1 0 0 -0 -1 -1 -2 -2 -2 -2 -2 -2 -2 -2 -2 -2 -2 -2 -2 -2 -2 -2 -2 -2 -2 -2 -2 -2 -2 -2
2 2 4 7 12 15 13 12 9 9 7 6 6 7 8 9 5 4 3 1 0 -0 -1 -1 -1 -2 -2 -2 -2 -2 -2 -2 -2 -2 -2 -2 -2 -2 -2 -2 -2 -2 -2 -2 -2 -2 -2 -2 -2
3 2 7 10 12 14 13 11 9 8 6 7 8 6 7 8 4 4 1 1 0 -0 -0 -1 -1 -2 -2 -2 -2 -2 -2 -2 -2 -2 -2 -2 -2 -2 -2 -2 -2 -2 -2 -2 -2 -2 -2 -1 -1
5 5 6 12 13 10 10 10 8 8 7 6 7 9 6 3 3 2 0 0 0 0 -0 -1 -1 -2 -2 -2 -2 -2 -2 -2 -2 -2 -2 -2 -2 -2 -1 -1 -1 -1 -2 -2 -2 -2 -1 -1 -1
6 7 11 13 11 10 9 7 7 8 8 7 7 10 8 3 1 1 1 0 1 0 -0 -1 -1 -1 -2 -2 -2 -2 -2 -2 -2 -2 -2 -2 -1 -1 -1 -1 -1 -1 -1 -1 -1 -1 -1 -1 -1
9 8 13 14 12 9 9 7 7 7 7 7 8 8 7 2 3 3 1 1 0 0 -0 -1 0 -1 -1 -2 -2 -2 -2 -2 -2 -2 -2 -1 -1 -1 -1 -1 -1 -1 -1 -1 -1 -1 -1 -1 -1
10 11 13 12 11 9 8 8 8 7 7 8 6 9 6 4 3 2 1 0 0 -0 -0 -0 -1 -0 -0 -1 -1 -1 -2 -2 -2 -1 -2 -2 -2 -1 -1 -1 -1 -1 -1 -1 -1 -1 -1 -1 -1
9 10 13 12 12 11 7 7 6 6 8 4 5 9 9 4 3 2 1 1 0 0 -0 -0 -0 -0 -0 -0 0 -1 -1 -1 -2 -2 -1 -0 -0 -0 -0 -0 -1 -1 -1 -1 -1 -1 -1 -1 -1
6 13 14 12 12 10 6 7 7 5 7 6 5 6 4 2 3 4 2 2 1 1 0 1 0 -0 0 0 1 0 -0 -1 -1 -0 0 0 -0 -1 -0 1 0 -0 -1 -1 -1 -1 -1 -1 -1
8 12 12 8 8 8 7 7 7 8 8 8 7 4 3 4 5 5 4 3 3 2 1 0 0 1 0 -1 0 0 -0 0 0 -0 -1 -0 0 0 0 2 1 0 1 -1 -1 -1 -1 -1 -1
8 11 9 8 6 6 7 7 6 8 10 8 8 6 4 5 4 4 5 4 3 3 2 2 2 0 -0 0 1 0 1 1 0 1 0 -0 0 -0 1 1 1 1 2 -1 -0 -1 -1 2 2
10 8 7 7 6 6 7 6 8 8 8 5 5 4 4 4 4 4 4 4 3 3 3 1 1 0 0 -0 1 1 1 2 2 2 1 0 -0 2 2 4 4 4 4 1 3 4 4 5 5
9 8 7 7 8 6 6 7 8 9 6 5 4 4 5 4 4 3 3 3 4 3 2 1 1 1 0 1 0 2 4 4 4 4 4 2 2 4 5 5 6 7 6 5 6 7 7 8 7
7 8 8 7 7 7 7 8 8 8 5 6 5 5 5 4 4 4 3 4 3 3 2 1 1 1 0 1 3 4 4 5 5 6 5 5 5 5 6 7 8 8 8 7 8 8 8 9 9
8 10 9 8 8 8 7 10 10 7 6 7 6 6 5 4 4 4 3 3 3 3 2 2 1 1 3 5 6 6 6 6 7 7 7 6 6 7 7 8 8 9 8 8 8 8 9 10 10
11 10 14 10 8 7 8 13 10 7 7 8 7 6 6 6 8 6 6 5 5 4 4 2 1 3 5 7 7 7 8 8 8 8 8 6 7 7 8 9 9 9 9 9 9 10 10 11 11
11 15 14 12 8 9 9 13 9 7 7 8 8 8 8 10 10 8 7 6 5 4 4 3 4 6 7 8 8 8 8 9 8 9 9 8 8 8 9 9 10 10 10 11 10 10 11 12 12
15 15 13 14 11 11 11 12 10 8 8 8 8 8 9 10 10 9 7 7 6 5 3 4 6 7 8 9 9 9 9 9 10 10 10 10 9 9 10 11 11 11 11 11 11 11 11 12 13
12 13 14 12 11 13 12 12 11 9 8 8 9 9 9 10 10 9 7 7 7 6 4 5 6 7 8 9 9 10 10 11 11 11 11 11 11 11 11 11 11 11 11 12 11 12 12 13 13
12 14 15 12 11 13 14 14 12 9 9 8 8 9 9 11 10 10 8 9 9 8 5 6 8 8 8 9 10 10 11 11 11 12 12 12 12 11 11 12 12 12 12 12 13 13 13 13 14
12 14 14 14 13 12 14 15 12 10 8 8 8 8 9 10 11 10 10 10 10 9 7 7 8 8 9 10 10 11 11 11 12 12 13 12 12 11 12 12 13 13 12 13 14 14 14 15 14
15 10 11 13 14 18 13 19 16 14 11 9 8 9 10 10 10 10 11 11 11 11 9 10 10 10 10 10 11 11 12 13 12 13 13 13 12 12 12 12 13 13 13 14 13 14 14 14 16
13 10 11 12 14 15 16 17 15 12 14 11 9 9 10 10 11 11 11 11 12 11 11 10 10 10 9 9 10 11 12 12 12 13 13 13 13 12 13 13 14 14 14 14 14 14 14 14 15
9 12 12 12 14 19 16 16 16 14 13 11 9 9 10 11 11 12 12 12 12 11 11 10 10 10 10 10 10 11 12 12 13 13 14 14 13 14 14 14 14 15 14 14 14 14 15 15 15
11 14 19 20 20 21 15 17 15 11 10 10 10 11 12 12 13 14 14 13 13 12 12 11 11 12 11 10 11 11 12 13 13 14 14 14 15 15 15 15 15 15 15 14 14 15 15 15 16
13 14 19 23 22 20 14 19 15 10 9 9 10 10 11 12 12 13 13 13 13 13 12 12 12 12 12 12 13 13 13 13 13 13 14 15 15 15 15 15 15 14 14 14 14 15 14 15 15
13 16 12 17 16 19 17 15 11 11 10 9 10 12 12 12 12 12 12 12 13 13 13 13 13 13 13 13 14 14 14 14 14 14 14 15 14 14 14 14 14 14 14 14 14 15 15 15 15
11 11 16 16 22 23 19 18 17 14 12 10 11 13 13 12 12 12 13 13 13 13 13 13 14 14 14 14 14 14 14 14 14 15 15 15 15 14 14 14 14 14 14 14 14 15 15 15 15
13 14 13 14 16 21 21 19 14 12 11 11 11 12 12 13 13 13 13 13 14 14 14 14 14 15 15 15 15 15 15 15 14 15 15 15 14 15 15 14 15 15 15 15 15 15 15 16 15
11 13 13 18 19 17 17 17 14 13 13 10 11 12 13 13 13 13 13 14 14 15 15 15 15 15 15 15 15 15 15 15 15 15 15 15 15 15 15 15 15 15 15 16 16 16 16 16 15

GFSSGP_con_lsi_240.txt.gz
Lid_Strength_Index
0 2 3 5 10 11 14 12 10 10 10 8 7 8 9 8 10 12 2 1 0 0 -0 -1 -1 -2 -2 -2 -2 -2 -2 -2 -2 -2 -2 -2 -2 -2 -2 -2 -2 -2 -2 -2 -2 -2 -2 -2 -1
2 2 4 8 13 16 14 12 11 8 8 6 7 7 8 10 5 4 3 0 -0 -0 -0 -0 -1 -2 -2 -2 -2 -2 -2 -2 -2 -2 -2 -2 -2 -2 -2 -2 -2 -2 -2 -2 -2 -2 -2 -1 -1
4 3 7 10 13 15 14 12 12 8 7 7 8 6 7 8 5 4 1 0 -0 -0 -0 -0 -1 -2 -2 -2 -2 -2 -2 -2 -2 -2 -2 -2 -2 -2 -2 -1 -2 -2 -2 -2 -2 -2 -1 -1 -1
6 7 8 12 14 11 11 11 9 9 8 7 7 9 6 3 4 2 1 0 0 -0 -0 -1 -1 -2 -2 -2 -2 -2 -2 -2 -2 -2 -2 -2 -2 -1 -1 -1 -1 -1 -1 -1 -1 -1 -1 -1 -1
7 9 12 15 13 10 10 8 7 9 9 8 8 10 8 3 1 1 1 1 1 0 -0 -0 -1 -1 -2 -2 -2 -2 -2 -2 -2 -2 -2 -2 -1 -1 -1 -1 -1 -1 -1 -1 -1 -1 -1 -1 -1
9 10 14 15 13 9 10 8 8 8 7 8 8 8 8 3 2 1 1 1 -0 0 -0 -0 0 -1 -1 -2 -2 -2 -2 -1 -1 -1 -1 -1 -1 -1 -1 -1 -1 -1 -1 -1 -1 -1 -1 -1 -1
10 11 14 13 13 11 9 8 8 7 8 8 6 10 7 4 2 1 1 0 0 -0 -0 -0 -1 -0 -0 -1 -1 -1 -2 -2 -2 -1 -1 -1 -2 -1 -1 -1 -1 -1 -1 -1 -1 -1 -1 -1 -1
8 10 13 12 13 12 8 9 7 7 8 5 5 10 9 5 4 2 1 1 0 0 -0 0 -0 -1 -1 -0 0 -1 -1 -1 -2 -1 -1 -0 -0 -1 -1 -0 -1 -1 -1 -1 -1 -1 -1 -2 -2
7 12 14 12 12 10 7 9 6 5 7 7 5 6 4 4 2 2 2 2 1 1 0 1 -0 -0 -0 0 1 0 -0 -1 -1 -0 0 -0 -1 0 0 1 0 -1 -1 -1 -1 -2 -2 -1 -1
9 12 12 9 9 9 7 8 8 8 8 9 7 5 4 4 3 4 4 4 3 2 1 1 1 0 0 -1 0 1 -0 -0 0 -0 -1 -0 -0 0 0 2 2 1 0 -1 -2 -2 -0 1 -0
8 11 9 8 8 7 7 8 7 8 10 8 8 6 5 5 4 4 3 3 3 2 1 1 1 0 1 0 0 1 1 1 2 1 0 0 1 1 2 3 3 4 3 1 2 4 4 5 4
10 8 8 7 6 7 8 7 8 8 7 5 5 5 5 6 5 4 4 3 3 2 1 1 1 1 1 0 0 1 1 2 3 2 0 0 1 4 5 6 6 6 5 5 7 6 7 7 6
10 8 7 7 7 7 7 8 8 8 6 5 5 5 6 6 5 3 4 3 3 3 2 2 1 0 -0 1 2 2 4 5 3 3 3 2 4 5 6 7 7 8 8 8 8 8 9 9 8
8 8 8 7 7 7 8 8 8 8 6 6 5 6 7 6 5 5 5 4 3 3 2 1 1 0 1 2 3 5 6 5 4 5 5 5 4 7 7 8 9 9 9 8 8 9 10 10 9
8 11 9 8 8 9 7 10 10 7 6 7 6 6 6 6 5 4 4 4 3 3 2 2 2 2 2 4 5 6 5 5 6 7 7 7 7 8 8 9 9 10 9 9 9 10 11 11 10
11 10 14 10 8 7 8 14 9 7 7 8 7 6 6 5 5 5 5 4 3 3 2 2 2 4 5 6 7 8 8 8 8 8 8 7 7 7 9 9 10 10 9 9 10 11 12 12 11
14 16 14 12 8 9 10 13 9 7 8 8 7 7 6 8 7 7 5 4 4 3 3 3 4 5 7 8 8 8 9 8 9 9 9 9 9 9 9 10 10 10 11 11 11 12 12 13 12
18 17 14 14 11 10 11 12 9 8 8 8 8 7 7 8 8 7 6 4 4 3 3 5 6 7 8 9 8 9 9 10 10 10 10 10 10 10 10 11 12 12 12 12 11 12 12 13 13
14 15 14 12 10 11 12 12 11 9 8 9 8 8 8 8 9 8 7 6 4 3 4 6 7 7 8 8 9 10 11 11 11 11 11 11 11 11 12 13 13 13 13 13 13 13 14 14 14
12 14 14 12 10 11 12 12 11 11 10 8 8 8 8 10 9 9 8 6 4 3 4 6 7 7 7 8 9 10 11 11 11 12 12 11 12 12 13 13 13 13 13 14 14 14 14 14 15
12 14 14 14 12 11 12 14 13 11 10 10 7 7 8 10 9 9 9 8 6 5 5 7 7 7 8 9 10 11 11 12 12 13 12 12 12 12 13 13 13 13 14 14 15 14 14 15 15
15 11 12 13 14 18 12 19 14 12 12 11 9 8 9 9 9 9 9 9 8 8 7 7 8 9 9 10 11 12 12 13 13 12 13 13 13 13 13 13 13 13 14 14 14 14 15 15 17
12 10 12 12 14 15 15 17 15 13 14 12 11 9 10 10 10 10 10 9 10 10 9 9 9 10 10 10 10 11 12 13 13 13 13 14 14 14 14 14 14 14 14 15 15 15 16 16 16
9 11 12 13 14 19 16 17 17 14 13 12 11 9 9 10 10 10 10 11 11 10 9 10 10 10 10 10 10 11 12 13 14 14 14 15 15 15 15 15 15 15 15 15 15 16 16 16 16
11 14 19 20 20 20 15 17 15 11 10 10 10 10 9 10 11 12 12 12 12 11 11 10 10 11 10 11 11 12 12 13 14 14 15 15 16 15 16 16 16 16 16 16 16 16 16 16 17
13 13 18 23 22 20 15 19 15 10 8 9 9 9 10 11 12 12 12 12 12 12 11 10 11 11 11 11 11 12 12 13 13 14 14 15 15 16 16 16 16 16 16 16 16 16 16 16 16
13 16 12 16 16 19 17 15 12 10 10 9 9 11 12 12 12 13 13 13 12 12 12 12 12 12 11 11 12 12 13 13 14 14 15 15 16 15 16 16 16 16 16 16 16 17 17 16 16
12 10 16 16 21 22 19 18 17 13 12 10 10 11 12 12 12 13 12 12 12 12 12 12 12 12 13 13 13 13 14 14 14 15 15 15 15 15 16 16 16 16 16 16 16 16 16 16 16
13 14 14 14 16 20 21 19 12 13 11 10 9 10 12 12 13 13 13 13 13 13 13 13 13 13 13 13 14 14 14 14 15 15 16 16 15 16 16 15 15 16 16 16 16 16 16 16 16
11 13 14 18 18 17 17 18 13 13 13 9 11 11 12 12 12 13 13 14 14 14 14 14 14 15 14 14 14 15 15 15 15 15 16 16 16 15 15 15 15 16 16 16 16 16 16 16 16